Regional Weather Roundup
Issued by NWS Pendleton, OR

Home | Current Version | Previous Version | Text Only | Print | Product List | Glossary On
Versions: 1 2 3 4 5 6 7 8 9 10 11 12 13 14 15 16 17 18 19 20 21 22 23 24 25 26 27 28 29 30 31 32 33 34 35 36 37 38 39 40 41 42 43 44 45 46 47 48 49 50
251
ASUS46 KPDT 061725
RWRPDT
PENDLETON REGIONAL WEATHER ROUNDUP
NATIONAL WEATHER SERVICE PENDLETON OREGON
900 AM PST TUE DEC 6 2016

NOTE: FAIR INDICATES FEW OR NO CLOUDS BELOW 12,000 FEET WITH NO
SIGNIFICANT WEATHER AND/OR OBSTRUCTIONS TO VISIBILITY.

# INDICATES UNOFFICIAL STATION AND DATA

WAZ520-061810-
EAST SLOPES OF WASHINGTON CASCADES

CITY            SKY/WX      TMP DP  RH  WIND    PRES   REMARKS
#CLE ELUM HS    N/A         25  20  81  CALM    30.00R
#CLE ELUM LAKE  N/A         22  20  92  CALM    30.14R
#GLENWOOD       N/A         29  26  88  CALM    30.11R
#MANASTASH CYN  N/A         24  20  84  CALM    29.98R
#NELSON 3SW     N/A         21  20  96  CALM    30.37R
#NILE           N/A         23  19  84  CALM    29.39R
#RONALD 2NW     N/A         21  N/A N/A CALM    29.99R
#TEANAWAY 4NE   N/A         20  18  92  CALM    N/A
#TROUT LAKE 1NE N/A         27  25  92  CALM    30.10R
#TROUT LAKE 1E  N/A         26  25  96  CALM    29.98R
$$

WAZ521-061810-
SIMCOE HIGHLANDS

CITY            SKY/WX      TMP DP  RH  WIND    PRES   REMARKS
#CENTERVILLE 1SWN/A         27  25  92  CALM    30.08R
#GOLDENDALE 1NE N/A         29  20  69  N5      N/A
#GOLDENDALE 4W  N/A         29  24  81  CALM    30.06R
#GOODNOE HILLS  N/A         78  55  45  SW22    29.96
#LYLE 6NE       N/A         29  28  96  CALM    30.07R
$$

WAZ026-061810-
KITTITAS VALLEY

CITY            SKY/WX      TMP DP  RH  WIND    PRES   REMARKS
ELLENSBURG AP   CLOUDY      24  20  84  CALM    30.05R
#ELLENSBURG CWU N/A         23  21  92  CALM    30.09R
#ELLENSBURG 3NE N/A         22  20  92  CALM    28.13R
#KITTITAS 4N    N/A         25  21  84  E3      30.08R
#KITTITAS 3S    N/A         23  22  96  CALM    30.14R
#THORP 6N       N/A         21  19  92  N1      30.17R
$$

WAZ027-061810-
YAKIMA VALLEY

CITY            SKY/WX      TMP DP  RH  WIND    PRES   REMARKS
YAKIMA AIRPORT  LGT RAIN    34  22  61  N13     30.09R WCI 25
YAKIMA-VAGABOND LGT SNOW    30  21  69  NE23    30.04R WCI 17
#GRANDVIEW      N/A         32  23  69  CALM    30.14R
#MABTON         N/A         33  28  82  N3      30.09R
#NACHES 2SW     N/A         28  23  81  CALM    30.04R
#TERRACE HTS    N/A         30  23  75  E1      30.11R
#TOPPENISH      N/A         33  25  72  CALM    30.05R
#WEST VALLEY    N/A         31  23  72  CALM    30.13R
#W YAKIMA       N/A         31  22  69  CALM    30.15R
#WHITE SWAN 5E  N/A         32  28  85  CALM    30.16R
#WILEY CITY 3W  N/A         30  21  69  CALM    30.04R
$$

WAZ028-061810-
LOWER COLUMBIA BASIN...WASHINGTON

CITY            SKY/WX      TMP DP  RH  WIND    PRES   REMARKS
HANFORD         CLOUDY      31  26  81  N9      30.08R
PASCO           CLOUDY      31  28  88  N14     30.09R WCI 21
PROSSER AWOS    N/A         34  25  69  N9      30.12R
RICHLAND AWOS   LGT SNOW    32  30  92  N13     30.11R WCI 22
#BENTON CITY    N/A         31  27  85  NE9     30.03R
#CONNELL 5N     N/A         26  22  85  N2      30.11R
#CONNELL 5NW    N/A         27  23  85  N2      30.06R
#ELTOPIA 6NW    N/A         28  26  92  CALM    29.03R
#KAHLOTUS       N/A         27  24  88  E10     30.09R
#KENNEWICK 3S   N/A         30  28  92  CALM    30.11R
#PATERSON       N/A         32  28  85  NE5     30.09R
#SAGEMOOR 2W    N/A         29  25  85  N5      29.94R
#TOUCHET 2S     N/A         32  29  89  W1      30.07R
#WEST PASCO     N/A         31  28  88  N5      30.10R
$$

WAZ029-061810-
FOOTHILLS OF THE BLUES...WASHINGTON

CITY            SKY/WX      TMP DP  RH  WIND    PRES   REMARKS
WALLA WALLA AP  LGT SNOW    29  27  92  SW7     30.02R FOG
#CLYDE 6NW      N/A         29  27  92  CALM    30.06R
#DAYTON SCHOOL  N/A         28  23  81  SW2     30.00R
#LOWDEN 2SE     N/A         32  30  92  W1      30.03R
#PLEASANT VIEW 1N/A         26  25  96  CALM    30.11R
#PRESCOTT       N/A         30  28  92  CALM    30.06R
#WHITMAN COLLEGEN/A         30  28  92  SW1     30.12R
#WAITSBURG 5S   N/A         27  26  96  S6      30.16R
#WAITSBURG 8N   N/A         27  N/A N/A N2      29.99F
#WALLA WALLA U  N/A         31  30  96  CALM    30.08R
#WHITMAN MISSIONN/A         32  30  92  CALM    30.09R
$$

WAZ030-061810-
BLUE MOUNTAINS...WASHINGTON

CITY            SKY/WX      TMP DP  RH  WIND    PRES   REMARKS
#DIXIE 5SE      N/A         23  21  92  S5      29.84R
#SKI BLUEWOOD   N/A         18  15  88  CALM    29.80R
$$

ORZ009-041-WAZ024-061810-
COLUMBIA RIVER GORGE

CITY            SKY/WX      TMP DP  RH  WIND    PRES   REMARKS
HOOD RIVER AP   CLOUDY      32  32  100 CALM    30.09R FOG
THE DALLES AP   CLOUDY      35  33  92  CALM    30.11R
#ARLINGTON AIRPON/A         32  28  85  N7      30.13R
#ARLINGTON HS   N/A         33  30  89  CALM    30.02R
#CELILO DOT     N/A         36  31  82  CALM    N/A
#LYLE           N/A         36  34  92  CALM    30.13R
#MOSIER 1S      N/A         34  30  85  CALM    N/A
#MURDOCK        N/A         36  33  89  NW2     30.09R
#RUFUS DOT      N/A         35  32  89  SE8     N/A
#SMITHVILLE     N/A         35  33  92  CALM    30.06R

$$

ORZ510-061810-
NORTH CENTRAL OREGON

CITY            SKY/WX      TMP DP  RH  WIND    PRES   REMARKS
#ANTELOPE       N/A         26  23  88  NE7     29.97R
#CHENOWITH 1W   N/A         29  28  96  W1      N/A
#COW CYN RST AREN/A         25  N/A N/A N5      N/A
#DUFUR 9E       N/A         27  24  88  E12     30.15R WCI 16
#GRASS VALLEY 1SN/A         27  26  96  E2      29.93R
#KENT DOT       N/A         26  22  85  N8      N/A
#MAUPIN SCHOOL  N/A         32  31  96  CALM    30.09R
#MORO SCHOOL    N/A         28  28  100 CALM    30.02R
#SHANIKO 5WSW   N/A         23  19  84  N13     N/A    WCI 11
#SHANIKO 4NW    N/A         22  21  96  NE9     29.90R
#WAPANITIA AIRPON/A         28  26  92  CALM    30.12R
#WASCO DOT      N/A         30  29  96  E3      N/A
#WASCO 5NE      N/A         28  26  92  CALM    30.11R
$$

ORZ511-061810-
CENTRAL OREGON

CITY            SKY/WX      TMP DP  RH  WIND    PRES   REMARKS
BEND AIRPORT    LGT SNOW    27  25  92  CALM    29.92R
MADRAS AIRPORT  CLOUDY      27  27  100 N7      29.99R
PRINEVILLE AP   MOCLDY      27  25  92  CALM    29.92R
REDMOND AIRPORT LGT SNOW    28  24  85  CALM    29.92R FOG
#ASHWOOD SCHOOL N/A         28  26  92  CALM    29.93R
#BEND 1SW       N/A         26  24  92  NE2     N/A
#BEND-AWBREY    N/A         26  25  96  NE1     30.05R
#BEND-KIM LN    N/A         26  24  92  CALM    29.85R
#CULVER         N/A         26  24  92  N2      29.98R
#CULVER 8W      N/A         28  24  85  N1      29.96R
#LAKE BILLY CHINN/A         28  N/A N/A N3      30.11R
#MADRAS 4S      N/A         50  41  71  N2      30.04R
#POWELL BUTTE 3EN/A         26  24  92  CALM    N/A
#POWELL BUTTE   N/A         28  22  78  CALM    29.88R
#PRINEVILLE 3N  N/A         25  23  92  CALM    30.05R

$$


ORZ509-061810-
EAST SLOPES OF OREGON CASCADES

CITY            SKY/WX      TMP DP  RH  WIND    PRES   REMARKS
SISTERS AWOS    N/A         27  25  92  CALM    29.90R
#BLUE BOX PASS  N/A         23  N/A N/A CALM    N/A
#CAMP SHERMAN   N/A         27  24  88  CALM    30.11R
#LA PINE DOT    N/A         26  23  88  CALM    N/A
#LA PINE 4NW    N/A         24  21  88  CALM    30.05R
#LAVA BUTTE DOT N/A         24  21  88  CALM    N/A
#SISTERS AIRPOR N/A         26  26  100 CALM    30.17S
#SISTERS ODOT   N/A         27  N/A N/A CALM    N/A
#SISTERS 3N     N/A         28  22  78  CALM    29.94R
#SUNRIVER       N/A         25  24  96  CALM    30.05R
#SUTTLE LK DOT  N/A         21  21  100 NE38G53 N/A    WCI  1
#TUMALO 3W      N/A         24  22  92  CALM    29.92R
#WANOGA BUTTE D N/A         17  15  92  NE3     N/A

$$

ORZ044-061810-
LOWER COLUMBIA BASIN...OREGON

CITY            SKY/WX      TMP DP  RH  WIND    PRES   REMARKS
HERMISTON       CLOUDY      33  29  85  N6      30.07R
#BOARDMAN SCHOOLN/A         35  29  78  N7      30.09R
#I-84 EX 198 DOTN/A         30  30  100 N7      N/A
#UMATILLA       N/A         33  26  75  N7      30.04R
$$

ORZ507-061810-
NORTHERN FOOTHILLS OF THE BLUES

CITY            SKY/WX      TMP DP  RH  WIND    PRES   REMARKS
PENDLETON AIRPT LGT SNOW    27  26  96  NW7     30.02R FOG
#ADAMS 3WNW     N/A         27  25  92  CALM    30.08R
#ATHENA         N/A         27  25  92  CALM    30.10R
#CAYUSE         N/A         29  28  96  CALM    30.07R
#HELIX SCHOOL   N/A         27  26  96  CALM    30.07R
#HELIX 3N       N/A         27  26  96  N2      29.96R
#HOLDMAN 5SE    N/A         29  27  92  CALM    30.01R
#HOLDMAN 6E     N/A         27  26  96  CALM    29.88R
#M-F GROVE ELEM N/A         30  27  88  CALM    30.00R
#M-FREEWATER 5SEN/A         29  27  92  CALM    30.01R
#PENDLETON DNTN N/A         31  26  81  CALM    30.04R
#PDT AQUATIC CTRN/A         29  29  100 CALM    30.01S
#PDT SUNRIDGE   N/A         29  27  92  CALM    30.04R
#PENDLETON 7NW  N/A         31  27  85  CALM    31.38S
#PILOT ROCK 1S  N/A         28  24  85  CALM    30.02R
#PILOT ROCK     N/A         30  27  88  CALM    30.03R
#UMAPINE 2E     N/A         31  30  96  CALM    30.02R
#WESTON SCHOOL  N/A         27  24  88  CALM    29.86R

$$

ORZ508-061810-
SOUTHERN FOOTHILLS OF THE BLUES

CITY            SKY/WX      TMP DP  RH  WIND    PRES   REMARKS
LEXINGTON       LGT SNOW    28  28  100 N7      30.06R
#AJAX           N/A         26  19  74  N3      27.76R
#CONDON SCHOOL  N/A         24  23  96  N7      29.92R
#CONDON 5W      N/A         22  19  88  N5      29.91R
#HEPPNER EOC    N/A         26  25  96  CALM    30.02R
#HEPPNER 4NE    N/A         24  22  92  N3      30.08R
#LEXINGTON 2SE  N/A         30  27  88  CALM    30.00R
#MIKKALO        N/A         29  27  92  CALM    30.14R
#OLEX 4N        N/A         30  29  96  CALM    30.06R
#RUGGS 5NE      N/A         25  25  100 N2      30.11R
#RUGGS 2SW      N/A         24  22  92  N2      30.11R

$$

ORZ502-503-061810-
BLUE MOUNTAINS

CITY            SKY/WX      TMP DP  RH  WIND    PRES   REMARKS
MEACHAM         LGT SNOW    23  18  81  CALM    29.88R
#BATTLE MTN DOT N/A         20  18  92  N2      N/A
#GREENHORN 9SW  N/A         22  21  96  CALM    26.07R
#HEPPNER 15SE   N/A         20  18  92  CALM    29.89R
#LADD CYN SMT   N/A         22  21  96  SE2     N/A
#LADD CREEK ODOTN/A         25  24  96  SW2     N/A
#LONG CREEK HS  N/A         23  23  100 CALM    29.88R
#N POWDER DOT   N/A         22  20  92  NE3     N/A
#PIKES PEAK     N/A         21  18  88  SW1     27.99S
#TOLLGATE       N/A         17  15  92  CALM    29.69R
#TROY SCHOOL    N/A         28  26  92  CALM    29.88R
#UKIAH          N/A         22  20  92  CALM    29.98R
#WESTON 4E      N/A         22  21  96  CALM    30.03R
$$

ORZ505-061810-
JOHN DAY BASIN

CITY            SKY/WX      TMP DP  RH  WIND    PRES   REMARKS
JOHN DAY        PTCLDY      26  24  92  W5      29.89R
#DAYVILLE SCHOOLN/A         27  24  88  CALM    29.92R
#MITCHELL 8NW   N/A         25  24  96  CALM    30.03R
#MONUMENT HS    N/A         28  24  85  CALM    30.00R
#MT. VERNON 5SE N/A         24  22  92  CALM    29.82R
#SPRAY SCHOOL   N/A         29  N/A N/A CALM    N/A
$$

ORZ506-061810-
OCHOCO AND JOHN DAY HIGHLANDS

CITY            SKY/WX      TMP DP  RH  WIND    PRES   REMARKS
#BUCK CREEK DOT N/A         26  26  100 W1      N/A
#HORSE RIDGE DO N/A         25  22  88  NW5     N/A
#KEYES SMT DOT  N/A         23  20  88  NW5     N/A
#PAULINA SCHOOL N/A         23  22  96  CALM    N/A
#PINE MTN OBS   N/A         17  15  92  CALM    N/A
#SENECA         N/A         19  N/A N/A CALM    N/A
#SENECA 9NW     N/A         18  16  92  CALM    30.02R
$$

ORZ049-061810-
GRANDE RONDE VALLEY

CITY            SKY/WX      TMP DP  RH  WIND    PRES   REMARKS
LA GRANDE       CLOUDY      27  19  71  CALM    29.92R
#COVE           N/A         26  25  96  CALM    29.96R
#COVE SCHOOL    N/A         27  24  88  CALM    29.94R
#COVE 6NW       N/A         26  23  88  CALM    30.05R
#ELGIN 3N       N/A         27  20  74  CALM    29.91R
#ELGIN 1E       N/A         28  23  81  CALM    N/A
#IMBLER SCHOOL  N/A         25  22  88  CALM    29.90R
#ISLAND CITY 4N N/A         35  35  100 CALM    30.11R
#LADD CYN DOT   N/A         27  23  85  SE8     N/A
#UNION 1S       N/A         26  23  88  SE3     30.06R
$$

ORZ050-061810-
WALLOWA COUNTY

CITY            SKY/WX      TMP DP  RH  WIND    PRES   REMARKS
JOSEPH AIRPORT  LGT SNOW    18  14  84  CALM    29.86R
#IMNAHA SCHOOL  N/A         32  24  72  S5      29.94R
#IMNAHA 10S     N/A         28  19  68  CALM    29.90R
#JOSEPH 3N      N/A         20  17  88  CALM    29.89R
#JOSEPH 3W      N/A         21  15  77  CALM    29.69R
#LOSTINE        N/A         23  20  88  CALM    29.86R
#LOSTINE 3SE    N/A         22  19  88  CALM    29.89R
#MT HOWARD 8000 N/A          7   4  87  CALM    29.56R
#PROMISE 1S     N/A         23  19  84  E2      30.15R
#WALLOWA SCHOOL N/A         23  21  92  CALM    29.89R



$$



USA.gov is the U.S. government's official web portal to all federal, state and local government web resources and services.